{"data":{"norad_id":52112,"intl_designator":"2022-029AA","name":"STARLINK-3734","alt_names":[],"object_type":"PAYLOAD","status":"ACTIVE","operator":null,"country":"US","launch_date":"2022-03-19","launch_site_code":"AFETR","launch_vehicle":null,"mission":null,"orbit_class":"UNKNOWN","rcs_meters":null,"size_class":null,"mass_kg":null,"dimensions":null,"purposes":["comms"],"wikipedia_slug":null,"has_3d_model":false,"image_url":null,"decayed_at":null,"tle_current":{"epoch":"2026-05-25T06:00:02.000160Z","epoch_age_seconds":57052,"freshness":"FRESH","line1":"1 52112U 22029AA  26145.25002315  .00133560  00000+0  34148-2 0  9991","line2":"2 52112  53.2174  88.6734 0001169  77.4445  99.0587 15.38490108  5742","mean_motion":15.38490108,"eccentricity":0.0001169,"inclination_deg":53.2174,"raan_deg":88.6734,"arg_perigee_deg":77.4445,"mean_anomaly_deg":99.0587,"bstar":0.0034148,"rev_number":574,"period_min":93.598261861558,"perigee_km":449.77524126773,"apogee_km":451.37179378673,"semimajor_km":6828.7105175272,"source":"CELESTRAK","updated_at":"2026-05-25T13:38:17.073398Z"}}}